www.pogodaiklimat.ru

Погода и климат >> Архив погоды >> Мексика >> Loreto


ПОГОДА в Loreto

  • Прогноз погоды в Loreto
  • Монитор погоды в Loreto
  • Климат города

АРХИВ ПОГОДЫ в Loreto

Время (UTC), дата Ветер
(напр.,м/с)
 
Видим.   Явления Облачность Т
(С)
Тd
(С)
f
(%)
Тe
(С)
Тes
(С)
Комфортность P
(гПа)
Po
(гПа)
Тmin
(С)
Tmax
(С)
R
(мм)
R24
(мм)
S
(см)
09 18.06 штиль 0 20 км ясно +23.1 +16.2 65 +28 +28 душно 1009.1 1008.3
12 18.06 ЮЗ 1 20 км ясно +24.6 +7.9 34 +25 +25 комфорт 1009.6 1008.8 +22.5 +36.0
15 18.06 ЮЗ 1 20 км ясно +29.5 +9.6 29 +29 +36 жарко 1010.6 1009.8
18 18.06 ЮВ 3 20 км ясно +32.7 +10.6 26 +32 +49 жарко 1011.0 1010.2 +22.5 +33.6
21 18.06 В 2 20 км ясно +32.2 +17.3 41 +36 +55 опасность
солнечного
удара
1008.8 1008.0 +22.5 +34.8
00 19.06 В 2 20 км ясно +32.2 +17.3 41 +36 +41 очень
душно
1008.8 1008.0 +22.5 +34.8
03 19.06 В 1 20 км ясно +27.5 +16.9 52 +31 +31 душно 1009.0 1008.2
12 19.06 З 2 20 км ясно +25.0 +8.5 35 +25 +25 комфорт 1010.3 1009.5 +22.5 +34.8
15 19.06 З 3 20 км ясно +28.5 +7.7 27 +28 +33 жарко 1011.2 1010.4
18 19.06 СВ 2 20 км ясно +31.0 +15.6 39 +33 +53 опасность
солнечного
удара
1011.2 1010.4 +22.5 +32.2
21 19.06 СВ 3 20 км ясно +32.2 +16.4 39 +35 +51 опасность
солнечного
удара
1010.5 1009.7
00 20.06 В 2 20 км ясно +32.2 +19.1 46 +38 +43 очень
душно
1010.0 1009.3 +22.5 +33.8
03 20.06 В 1 20 км ясно +27.8 +18.6 57 +33 +33 очень
душно
1008.4 1007.7
12 20.06 З 1 20 км ясно +25.6 +8.9 35 +26 +26 жарко 1009.2 1008.4 +24.2 +33.8
15 20.06 СЗ 1 20 км ясно +28.5 +13.6 40 +30 +37 жарко 1010.9 1010.1
18 20.06 СВ 1 20 км 1/0
[Ac trans]
+32.0 +13.3 32 +33 +55 опасность
солнечного
удара
1011.4 1010.6 +24.0 +33.0
21 20.06 СВ 2 20 км ясно +31.8 +16.6 40 +35 +54 опасность
солнечного
удара
1010.3 1009.6
00 21.06 ЮВ 1 20 км ясно +31.6 +17.8 44 +36 +42 очень
душно
1009.1 1008.3 +24.0 +33.3
03 21.06 ЮВ 1 20 км ясно +26.4 +17.8 59 +31 +31 душно 1008.8 1008.0
12 21.06 штиль 0 20 км ясно +24.0 +19.0 74 +29 +29 душно 1009.9 1009.1 +23.0 +33.3
15 21.06 штиль 0 20 км ясно +27.6 +15.3 47 +30 +38 жарко 1011.3 1010.5
18 21.06 СВ 2 20 км ясно +30.8 +17.0 44 +35 +54 опасность
солнечного
удара
1011.3 1010.5 +22.5 +31.5
21 21.06 СВ 3 20 км ясно +32.0 +21.5 54 +40 +56 опасность
солнечного
удара
1009.3 1008.5
00 22.06 В 2 20 км ясно +33.2 +19.8 45 +39 +44 очень
душно
1007.5 1006.7 +22.5 +33.6
03 22.06 ЮВ 1 20 км ясно +28.9 +17.5 50 +33 +33 очень
душно
1007.7 1007.0
12 22.06 ЮЗ 1 20 км ясно +25.5 +18.1 64 +30 +30 душно 1008.9 1008.1 +25.0 +33.6
15 22.06 штиль 0 20 км ясно +29.7 +17.1 47 +34 +41 очень
душно
1009.7 1008.9
18 22.06 В 2 20 км ясно +33.5 +15.7 34 +36 +55 опасность
солнечного
удара
1009.3 1008.5 +25.0 +34.2
21 22.06 Ю 3 20 км ясно +33.3 +17.5 39 +37 +53 опасность
солнечного
удара
1007.5 1006.7
00 23.06 ЮВ 4 20 км ясно +31.5 +20.6 52 +38 +42 очень
душно
1006.5 1005.7 +25.0 +34.5
03 23.06 Ю 1 20 км ясно +28.3 +22.3 70 +37 +37 очень
душно
1007.7 1006.9
06 23.06 Ю 1 20 км ясно +27.0 +22.1 75 +35 +35 очень
душно
1009.0 1008.2 +25.0 +34.5
12 23.06 штиль 0 20 км ясно +25.2 +18.4 66 +30 +30 душно 1009.4 1008.7 +24.7 +34.5
15 23.06 ЮВ 2 20 км ясно +27.5 +21.1 68 +35 +40 очень
душно
1011.1 1010.3
18 23.06 ЮВ 2 20 км ясно +30.8 +20.0 53 +37 +57 опасность
солнечного
удара
1010.9 1010.1 +24.7 +31.0
21 23.06 ЮВ 2 20 км ясно +30.7 +20.5 55 +38 +57 опасность
солнечного
удара
1010.1 1009.4
00 24.06 Ю 4 20 км ясно +29.8 +20.4 57 +37 +40 очень
душно
1008.5 1007.7 +24.7 +34.5
03 24.06 Ю 1 20 км ясно +27.4 +21.2 69 +35 +35 очень
душно
1008.3 1007.6
06 24.06 Ю 1 20 км ясно +26.6 +22.3 77 +35 +35 очень
душно
1010.1 1009.3 +24.7 +34.5
09 24.06 ЮЗ 1 20 км ясно +26.5 +15.8 52 +30 +30 душно 1009.3 1008.5
12 24.06 З 2 20 км ясно +27.4 +10.2 34 +28 +28 жарко 1009.4 1008.7 +26.0 +34.5
15 24.06 Ю 1 20 км ясно +29.8 +14.4 39 +32 +39 душно 1011.5 1010.7
18 24.06 ЮВ 3 20 км ясно +31.1 +16.3 41 +34 +51 опасность
солнечного
удара
1012.3 1011.5 +26.0 +31.3
21 24.06 ЮВ 3 20 км ясно +32.5 +15.9 37 +35 +51 опасность
солнечного
удара
1010.2 1009.4
00 25.06 Ю 2 20 км ясно +31.7 +17.8 44 +36 +41 очень
душно
1008.4 1007.6 +26.0 +33.0
03 25.06 Ю 1 20 км ясно +28.5 +19.9 60 +35 +35 очень
душно
1009.2 1008.4
06 25.06 штиль 0 20 км ясно +27.5 +20.2 64 +34 +34 очень
душно
1010.4 1009.6 +26.0 +33.0

 

Местоположение метеостанции Loreto (Мексика): широта 26.02 долгота -111.30 высота над уровнем моря 7 м.

В архиве по умолчанию представлена погода в Loreto за последнюю неделю. Архивные данные за месяц целиком и за предыдущие месяцы, начиная с января 2011 года, Вы можете получить, выбрав интересующий диапазон дат из раскрывающегося списка и нажав кнопку "Ввод!".


*Определитесь, кто Вы:
робот инопланетянин человек

Внимание! Время в таблицах - всемирное. Для получения местного времени необходимо прибавить поправку, которая в Loreto равна -6 ч.

Смотрите также архив погоды в соседних городах и на ближайших метеорологических станциях:

Погода в Ciudad Constitucion (Мексика) (126 км)
Погода в Santa Rosalia (Мексика) (169 км)
Погода в Ciudad Obregon (Мексика) (211 км)
Погода в Guaymas (Мексика) (215 км)
Погода в Empalme (Мексика) (223 км)
Погода в La Paz (Мексика) (229 км)
Погода в Choix (Мексика) (319 км)
Погода в Hermosillo la Magna (Мексика) (342 км)
Погода в Hermosillo (Мексика) (342 км)
Погода в Culiacan (Мексика) (415 км)

Пояснения к столбцам:

Ветер - указаны скорость ветра в м/с - средняя за 10 мин, порывы в срок и между сроками (в фигурных скобках) и направление, откуда дует ветер: С - северный, СВ - северо-восточный, В - восточный, ЮВ - юго-восточный, Ю - южный, ЮЗ - юго-западный, З - западный, СЗ - северо-западный.
Видимость - горизонтальная дальность видимости в метрах или километрах. При видимости от 1 до 10 км при отсутствии осадков обычно наблюдается дымка, при ухудшении видимости до 1 км и менее - туман. В сухую погоду видимость может ухудшаться дымом, пылью или мглою.
Явления - указаны атмосферные явления, наблюдавшиеся в срок или в последний час перед сроком; фигурными скобками обозначены явления, наблюдавшиеся между сроками (за 1-3 часа до срока); квадратными скобками обозначены град или гололедные отложения с указанием их диаметра в мм.
Облачность - указаны через наклонную черту общая и нижняя облачность в баллах и высота нижней границы облаков в метрах; квадратными скобками обозначены формы облаков: Ci - перистые, Cs - перисто-слоистые, Cc - перисто-кучевые, Ac - высококучевые, As - высокослоистые, Sc - слоисто-кучевые, Ns - слоисто-дождевые, Cu - кучевые, Cb - кучево-дождевые. Подробнее классификацию облаков см. в Атласе облаков (PDF).
T - Температура воздуха - температура, измеренная на высоте 2 м над землей.
Td - Температура точки росы - температура, при понижении до которой содержащийся в воздухе водяной пар достигнет насыщения.
f - Относительная влажность воздуха - влажноcть воздуха, измеренная на высоте 2 м над землей.
Te - Эффективная температура - температура, которую ощущает одетый по сезону человек в тени. Характеристика душности погоды. При расчете учитывается влияние влажности воздуха и скорости ветра на теплоощущения человека.
Tes - Эффективная температура на солнце - температура, которую ощущает человек, с поправкой на солнечный нагрев. Характеристика знойности погоды. Зависит от высоты солнца над горизонтом, облачности и скорости ветра. Ночью, в пасмурную погоду, а также при ветре 12 м/с и более поправка равна нулю.
P - Атмосферное давление - приведенное к уровню моря атмосферное давление.
Po - Атмосферное давление - измеренное на уровне метеостанции атмосферное давление.
Tmin - Минимальная температура - минимум температуры воздуха на высоте 2 м над землей.
Tmax - Максимальная температура - максимум температуры воздуха на высоте 2 м над землей.
R - Количество осадков - Количество выпавших осадков за период времени, мм. При наведении курсора мыши на число - период времени, за который выпало указанное количество осадков.
R24 - Количество осадков - Количество выпавших осадков за 24 часа, мм.
S - Снежный покров - Высота снежного покрова, см. При наведении курсора мыши на число - состояние снежного покрова и степень покрытия местности в баллах.